www.pogodaiklimat.ru

Погода и климат >> Архив погоды >> Япония >> Уэно


ПОГОДА в Уэно

  • Прогноз погоды в Уэно
  • Монитор погоды в Уэно

АРХИВ ПОГОДЫ в Уэно

Время (UTC), дата Ветер
(напр.,м/с)
 
Видим.   Явления Облачность Т
(С)
Тd
(С)
f
(%)
Тe
(С)
Тes
(С)
Комфортность P
(гПа)
Po
(гПа)
Тmin
(С)
Tmax
(С)
R
(мм)
R24
(мм)
S
(см)
23 9.09 штиль 0 20 км н/о +27.1 +22.7 77 +36 +36 очень
душно
1015.0 996.8
00 10.09 З 2 20 км н/о +29.2 +23.6 72 +40 +40 очень
душно
1015.0 996.9 +23.7
01 10.09 З 3 20 км н/о +31.2 +23.3 63 +42 +42 опасность
перегрева
1014.5 996.6
02 10.09 ЮЗ 3 20 км н/о +32.2 +22.3 56 +41 +41 опасность
перегрева
1014.0 996.1
04 10.09 З 3 20 км н/о +34.4 +23.4 53 +45 +45 опасность
перегрева
1012.4 994.7
05 10.09 З 3 20 км н/о +34.3 +21.7 48 +42 +42 опасность
перегрева
1011.7 994.0
06 10.09 З 4 20 км н/о +35.0 +22.4 48 +44 +44 опасность
перегрева
1011.4 993.7
07 10.09 С 5 20 км н/о +33.6 +22.1 51 +42 +42 опасность
перегрева
1011.7 994.0
08 10.09 СВ 4 20 км н/о +31.2 +22.5 60 +41 +41 опасность
перегрева
1012.0 994.1
09 10.09 С 4 20 км н/о +29.8 +23.0 67 +40 +40 очень
душно
1012.7 994.7
10 10.09 С 3 20 км н/о +29.1 +23.3 71 +39 +39 очень
душно
1013.4 995.4
11 10.09 СВ 2 20 км н/о +29.0 +23.2 71 +39 +39 очень
душно
1014.2 996.1
12 10.09 С 2 20 км н/о +27.4 +23.4 79 +37 +37 очень
душно
1014.5 996.3 +35.6
13 10.09 СВ 2 20 км н/о +27.1 +23.6 81 +37 +37 очень
душно
1014.6 996.4
15 10.09 Ю 1 20 км н/о +26.4 +23.7 85 +36 +36 очень
душно
1014.7 996.5
16 10.09 Ю 1 20 км н/о +25.8 +23.5 87 +35 +35 очень
душно
1014.5 996.2
17 10.09 ЮВ 1 20 км н/о +25.8 +23.5 87 +35 +35 очень
душно
1014.3 996.0
18 10.09 ЮВ 1 20 км н/о +25.3 +23.4 89 +34 +34 очень
душно
1014.4 996.1
19 10.09 Ю 1 20 км н/о +24.7 +23.1 91 +33 +33 очень
душно
1014.5 996.2
20 10.09 Ю 1 20 км н/о +24.9 +23.2 90 +33 +33 очень
душно
1014.6 996.3
21 10.09 ЮВ 2 20 км н/о +24.7 +23.0 90 +33 +33 очень
душно
1014.9 996.5
22 10.09 СЗ 1 20 км н/о +25.9 +23.0 84 +35 +35 очень
душно
1014.7 996.4
23 10.09 В 1 20 км н/о +27.6 +23.2 77 +37 +37 очень
душно
1014.8 996.6
00 11.09 СЗ 2 20 км н/о +29.2 +23.6 72 +40 +40 очень
душно
1014.4 996.3 +24.5
01 11.09 З 3 20 км н/о +31.1 +23.5 64 +42 +42 опасность
перегрева
1013.7 995.8
02 11.09 З 4 20 км н/о +33.1 +23.4 57 +44 +44 опасность
перегрева
1013.0 995.2
03 11.09 З 5 20 км н/о +33.8 +22.9 53 +44 +44 опасность
перегрева
1012.2 994.5
04 11.09 З 5 20 км н/о +34.3 +22.4 50 +43 +43 опасность
перегрева
1011.3 993.6
05 11.09 СЗ 5 20 км в посл. час дождь н/о +34.3 +23.7 54 +45 +45 опасность
перегрева
1010.8 993.1
06 11.09 СВ 4 20 км {дождь} н/о +29.3 +23.5 71 +40 +40 очень
душно
1011.2 993.2 0.0
07 11.09 СВ 4 12 км слаб. дождь н/о +27.1 +24.9 88 +39 +39 очень
душно
1011.7 993.6
08 11.09 С 2 7000 м слаб. дождь н/о +26.6 +24.5 88 +37 +37 очень
душно
1012.2 994.0
09 11.09 С 2 7000 м слаб. дождь н/о +26.2 +24.2 89 +36 +36 очень
душно
1012.5 994.3
10 11.09 СВ 2 9000 м слаб. дождь н/о +25.7 +23.9 90 +35 +35 очень
душно
1012.2 994.0
11 11.09 СВ 2 12 км слаб. дождь н/о +25.4 +23.5 89 +34 +34 очень
душно
1013.4 995.1
12 11.09 СВ 1 14 км в посл. час дождь н/о +25.3 +23.4 89 +34 +34 очень
душно
1013.6 995.3 +35.3 5
13 11.09 СВ 2 17 км н/о +24.9 +23.0 89 +33 +33 очень
душно
1013.2 994.9
14 11.09 СЗ 2 16 км слаб. дождь н/о +24.6 +22.9 90 +33 +33 очень
душно
1013.3 995.0
15 11.09 В 1 14 км слаб. дождь н/о +24.5 +22.8 90 +32 +32 очень
душно
1013.3 995.0
16 11.09 З 2 20 км в посл. час дождь н/о +24.4 +22.5 89 +32 +32 очень
душно
1013.1 994.8
17 11.09 СЗ 2 19 км н/о +24.4 +22.5 89 +32 +32 очень
душно
1012.7 994.4
18 11.09 С 2 20 км в посл. час дождь н/о +24.5 +21.0 81 +31 +31 очень
душно
1012.7 994.4 0.0
19 11.09 С 4 20 км н/о +24.2 +19.9 77 +30 +30 очень
душно
1013.1 994.7
20 11.09 С 3 20 км н/о +23.7 +19.2 76 +29 +29 душно 1013.5 995.1
21 11.09 С 2 20 км н/о +23.4 +18.9 76 +30 +30 очень
душно
1013.9 995.5
23 11.09 С 5 20 км н/о +25.0 +16.4 59 +28 +28 жарко 1014.4 996.1
00 12.09 С 5 20 км н/о +26.3 +16.0 53 +30 +30 душно 1014.2 996.0 +23.3 0.0
01 12.09 СЗ 3 20 км н/о +27.0 +17.5 56 +31 +31 душно 1014.3 996.1
02 12.09 С 4 20 км н/о +28.2 +14.8 44 +31 +31 душно 1013.7 995.6
03 12.09 С 5 20 км н/о +29.1 +11.7 34 +30 +30 жарко 1013.2 995.2
04 12.09 С 5 20 км н/о +29.7 +9.3 28 +29 +29 жарко 1012.9 994.9
05 12.09 С 5 20 км н/о +28.5 +12.8 38 +30 +30 жарко 1012.4 994.3
06 12.09 С 5 20 км н/о +28.1 +12.1 37 +29 +29 жарко 1012.2 994.1
07 12.09 С 5 20 км н/о +27.4 +13.4 42 +29 +29 жарко 1012.3 994.2
08 12.09 С 3 20 км н/о +25.5 +13.4 47 +28 +28 жарко 1012.6 994.3
09 12.09 С 3 20 км н/о +24.4 +14.2 53 +27 +27 жарко 1013.1 994.8
10 12.09 СВ 3 20 км н/о +23.1 +14.7 59 +27 +27 душно 1013.9 995.5
11 12.09 СВ 2 20 км н/о +22.4 +15.5 65 +26 +26 жарко 1014.3 995.8
12 12.09 СВ 3 20 км н/о +22.4 +16.0 67 +27 +27 душно 1014.7 996.2 +30.2
13 12.09 СВ 3 20 км н/о +22.2 +16.5 70 +26 +26 душно 1014.4 995.9
15 12.09 В 2 20 км н/о +22.3 +17.0 72 +27 +27 душно 1013.4 994.9
16 12.09 СВ 4 20 км слаб. дождь н/о +22.2 +17.1 73 +27 +27 душно 1013.2 994.7
18 12.09 С 2 20 км в посл. час дождь н/о +22.0 +18.2 79 +27 +27 душно 1012.5 994.0 0.0
19 12.09 СВ 2 20 км слаб. дождь н/о +22.8 +19.2 80 +29 +29 очень
душно
1012.6 994.2
20 12.09 В 2 20 км в посл. час дождь н/о +23.3 +19.9 81 +30 +30 очень
душно
1013.0 994.6
21 12.09 В 2 20 км слаб. дождь н/о +22.9 +20.6 87 +30 +30 очень
душно
1012.9 994.5
22 12.09 В 2 20 км слаб. дождь н/о +23.3 +19.9 81 +30 +30 очень
душно
1013.7 995.3
23 12.09 В 2 20 км слаб. дождь н/о +23.6 +19.1 76 +28 +28 душно 1014.1 995.7
01 13.09 В 2 20 км слаб. дождь н/о +23.5 +19.7 79 +29 +29 душно 1014.4 996.0
02 13.09 В 4 20 км слаб. дождь н/о +23.5 +19.2 77 +28 +28 душно 1014.0 995.6
03 13.09 ЮВ 6 20 км слаб. дождь н/о +23.5 +19.0 76 +28 +28 душно 1012.9 994.5
04 13.09 ЮВ 4 20 км слаб. дождь н/о +23.9 +17.9 69 +28 +28 душно 1012.4 994.0
05 13.09 СВ 4 20 км слаб. дождь н/о +23.3 +18.0 72 +29 +29 душно 1012.7 994.3
06 13.09 В 4 20 км в посл. час дождь н/о +23.6 +18.3 72 +28 +28 душно 1012.8 994.4 0.5
08 13.09 В 4 20 км слаб. дождь н/о +23.0 +19.2 79 +29 +29 очень
душно
1012.8 994.4
09 13.09 В 4 20 км в посл. час дождь н/о +23.3 +18.8 76 +30 +30 очень
душно
1013.0 994.6
10 13.09 В 5 20 км н/о +23.1 +17.8 72 +29 +29 очень
душно
1013.4 995.0
11 13.09 В 4 20 км н/о +23.2 +17.4 70 +29 +29 душно 1014.1 995.7
13 13.09 В 4 20 км н/о +23.3 +17.5 70 +29 +29 душно 1014.7 996.3
14 13.09 В 3 20 км слаб. дождь н/о +23.1 +17.6 71 +28 +28 душно 1014.9 996.4
15 13.09 В 4 20 км в посл. час дождь н/о +22.8 +17.3 71 +28 +28 душно 1014.1 995.6
16 13.09 В 6 20 км в посл. час дождь н/о +23.0 +16.8 68 +28 +28 душно 1013.9 995.4
17 13.09 В 4 20 км н/о +22.5 +16.1 67 +27 +27 душно 1014.0 995.5
18 13.09 В 2 20 км {дождь} н/о +21.8 +15.2 66 +25 +25 комфорт 1013.9 995.4 0.0
19 13.09 ЮЗ 2 20 км н/о +21.0 +14.9 68 +25 +25 комфорт 1014.0 995.4
21 13.09 Ю 1 20 км н/о +19.7 +16.0 79 +23 +23 комфорт 1014.1 995.4
00 14.09 ЮВ 2 20 км н/о +26.1 +16.1 54 +29 +29 жарко 1013.5 995.3 +19.6 0.0
01 14.09 ЮВ 4 20 км н/о +27.1 +16.4 52 +31 +31 душно 1013.4 995.2
02 14.09 ЮВ 4 20 км н/о +28.0 +16.9 51 +32 +32 душно 1012.8 994.7
03 14.09 В 5 20 км н/о +27.8 +17.1 52 +32 +32 душно 1012.2 994.1
04 14.09 ЮВ 4 20 км н/о +28.6 +17.5 51 +33 +33 очень
душно
1011.3 993.3
05 14.09 ЮВ 4 20 км н/о +29.6 +18.4 51 +34 +34 очень
душно
1010.7 992.7
06 14.09 ЮВ 5 20 км н/о +29.1 +17.6 50 +33 +33 очень
душно
1010.1 992.1
07 14.09 ЮВ 5 20 км н/о +28.0 +18.1 55 +33 +33 очень
душно
1010.4 992.3
08 14.09 В 4 20 км н/о +27.2 +18.2 58 +32 +32 очень
душно
1010.7 992.6
09 14.09 ЮВ 3 20 км н/о +26.1 +18.3 62 +31 +31 очень
душно
1011.3 993.1
10 14.09 В 2 20 км н/о +25.2 +18.2 65 +30 +30 душно 1011.9 993.6
11 14.09 ЮВ 2 20 км н/о +24.4 +18.4 69 +29 +29 душно 1012.3 994.0
13 14.09 СЗ 1 20 км н/о +23.3 +19.1 77 +30 +30 очень
душно
1012.1 993.7
14 14.09 С 1 20 км н/о +22.9 +19.1 79 +29 +29 очень
душно
1011.7 993.3
15 14.09 СВ 1 20 км н/о +22.3 +19.1 82 +28 +28 душно 1011.5 993.0
16 14.09 С 1 20 км н/о +22.0 +19.0 83 +27 +27 душно 1011.3 992.8
17 14.09 СВ 1 20 км н/о +21.6 +19.2 86 +27 +27 душно 1011.1 992.6
18 14.09 СЗ 1 20 км н/о +21.1 +19.0 88 +25 +25 комфорт 1011.0 992.5
19 14.09 Ю 1 20 км н/о +20.7 +18.8 89 +26 +26 душно 1011.1 992.5
20 14.09 З 1 20 км н/о +20.4 +18.7 90 +26 +26 душно 1010.8 992.2
21 14.09 ЮЗ 1 20 км н/о +20.1 +18.4 90 +25 +25 комфорт 1010.5 991.9
22 14.09 СВ 1 20 км н/о +21.3 +18.9 86 +26 +26 душно 1010.3 991.8
23 14.09 СВ 2 20 км н/о +24.4 +18.1 68 +29 +29 душно 1009.9 991.6
00 15.09 СВ 3 20 км н/о +26.0 +17.1 58 +30 +30 душно 1009.6 991.4 +19.9
01 15.09 СВ 3 20 км н/о +27.5 +17.1 53 +31 +31 душно 1009.1 991.0
02 15.09 С 3 20 км н/о +30.3 +18.1 48 +35 +35 очень
душно
1008.3 990.4
03 15.09 С 2 20 км н/о +30.5 +17.6 46 +35 +35 очень
душно
1007.4 989.5
04 15.09 СВ 3 20 км н/о +31.3 +18.7 47 +36 +36 очень
душно
1006.4 988.6
05 15.09 СВ 3 20 км н/о +31.6 +18.6 46 +36 +36 очень
душно
1005.8 988.0
06 15.09 С 4 20 км н/о +30.1 +18.2 49 +35 +35 очень
душно
1005.5 987.7
07 15.09 С 4 20 км н/о +30.7 +17.8 46 +35 +35 очень
душно
1005.2 987.4
08 15.09 С 5 20 км н/о +29.3 +18.4 52 +34 +34 очень
душно
1005.2 987.3
09 15.09 С 4 20 км н/о +27.7 +18.4 57 +33 +33 очень
душно
1005.8 987.8
10 15.09 С 5 20 км н/о +26.2 +18.1 61 +31 +31 очень
душно
1006.0 987.9
11 15.09 С 4 20 км н/о +25.3 +18.5 66 +30 +30 душно 1006.7 988.5
12 15.09 С 3 20 км н/о +24.5 +19.1 72 +29 +29 душно 1006.7 988.5 +32.3
13 15.09 СВ 3 20 км н/о +23.7 +19.7 78 +29 +29 душно 1006.4 988.1
14 15.09 СВ 2 20 км н/о +23.3 +19.7 80 +30 +30 очень
душно
1006.2 987.9
16 15.09 ЮЗ 1 20 км н/о +22.1 +19.7 86 +28 +28 душно 1005.6 987.2
17 15.09 З 1 20 км н/о +22.1 +19.5 85 +28 +28 душно 1005.4 987.0
18 15.09 Ю 1 20 км н/о +22.2 +19.6 85 +28 +28 душно 1005.0 986.7
19 15.09 Ю 1 13 км н/о +22.4 +19.6 84 +28 +28 душно 1004.7 986.4
21 15.09 З 1 20 км н/о +22.6 +20.0 85 +29 +29 очень
душно
1004.5 986.2
22 15.09 ЮЗ 1 20 км н/о +23.2 +20.0 82 +30 +30 очень
душно
1004.5 986.2
23 15.09 З 2 20 км н/о +24.6 +20.5 78 +31 +31 очень
душно
1004.2 986.0
00 16.09 З 2 20 км н/о +25.8 +20.2 71 +32 +32 очень
душно
1004.0 985.9 +21.8
01 16.09 З 4 20 км н/о +26.1 +20.4 71 +32 +32 очень
душно
1003.7 985.6
03 16.09 З 4 20 км н/о +27.2 +20.8 68 +34 +34 очень
душно
1002.8 984.8
04 16.09 СЗ 4 20 км н/о +27.5 +19.8 63 +33 +33 очень
душно
1002.4 984.5
05 16.09 С 4 20 км н/о +26.8 +19.4 64 +32 +32 очень
душно
1002.7 984.7
07 16.09 С 4 20 км н/о +27.1 +18.7 60 +32 +32 очень
душно
1002.9 984.9
08 16.09 С 4 20 км н/о +27.0 +18.6 60 +32 +32 очень
душно
1003.3 985.3
09 16.09 С 3 20 км н/о +25.8 +18.5 64 +31 +31 очень
душно
1003.9 985.8
10 16.09 С 2 20 км н/о +25.2 +18.6 67 +30 +30 душно 1004.7 986.6
11 16.09 СЗ 1 20 км н/о +24.6 +19.0 71 +30 +30 очень
душно
1005.5 987.3
12 16.09 З 2 20 км н/о +23.9 +19.2 75 +29 +29 душно 1005.7 987.5 +28.1
13 16.09 З 1 20 км н/о +23.2 +19.0 77 +29 +29 душно 1006.0 987.7
14 16.09 Ю 1 20 км н/о +22.1 +18.9 82 +27 +27 душно 1006.1 987.7
15 16.09 Ю 1 20 км н/о +21.5 +19.1 86 +26 +26 душно 1006.7 988.3
16 16.09 ЮВ 2 20 км н/о +21.1 +18.9 87 +25 +25 комфорт 1007.1 988.6
17 16.09 ЮВ 2 20 км н/о +20.5 +18.6 89 +25 +25 комфорт 1007.0 988.5
18 16.09 Ю 1 20 км н/о +20.0 +18.5 91 +24 +24 комфорт 1007.6 989.0
19 16.09 Ю 1 20 км н/о +19.9 +18.4 91 +24 +24 комфорт 1008.2 989.6
20 16.09 Ю 1 20 км н/о +19.7 +18.2 91 +23 +23 комфорт 1008.6 990.0
21 16.09 З 1 20 км н/о +20.1 +18.4 90 +25 +25 комфорт 1008.8 990.2

 

Местоположение метеостанции Уэно (Япония): широта 34.77 долгота 136.15 высота над уровнем моря 161 м.

В архиве по умолчанию представлена погода в Уэно за последнюю неделю. Архивные данные за месяц целиком и за предыдущие месяцы, начиная с января 2011 года, Вы можете получить, выбрав интересующий диапазон дат из раскрывающегося списка и нажав кнопку "Ввод!".


*Определитесь, кто Вы:
робот инопланетянин человек

Внимание! Время в таблицах - всемирное. Для получения местного времени необходимо прибавить поправку, которая равна 9 ч.

Смотрите также архив погоды в соседних городах и на ближайших метеорологических станциях:

Погода в Наре (Япония) (30 км)
Погода в Цу (Япония) (33 км)
Погода в Йоккаити (Япония) (43 км)
Погода в Киото (Япония) (47 км)
Погода в Хиконе (Япония) (57 км)
Погода в Осаке (Япония) (59 км)
Погода в Овасе (Япония) (78 км)
Погода в Нагоя (Япония) (86 км)
Погода в Кобе (Япония) (86 км)
Погода в Ирако (Япония) (88 км)

Пояснения к столбцам:

Ветер - указаны скорость ветра в м/с - средняя за 10 мин, порывы в срок и между сроками (в фигурных скобках) и направление, откуда дует ветер: С - северный, СВ - северо-восточный, В - восточный, ЮВ - юго-восточный, Ю - южный, ЮЗ - юго-западный, З - западный, СЗ - северо-западный.
Видимость - горизонтальная дальность видимости в метрах или километрах. При видимости от 1 до 10 км при отсутствии осадков обычно наблюдается дымка, при ухудшении видимости до 1 км и менее - туман. В сухую погоду видимость может ухудшаться дымом, пылью или мглою.
Явления - указаны атмосферные явления, наблюдавшиеся в срок или в последний час перед сроком; фигурными скобками обозначены явления, наблюдавшиеся между сроками (за 1-3 часа до срока); квадратными скобками обозначены град или гололедные отложения с указанием их диаметра в мм.
Облачность - указаны через наклонную черту общая и нижняя облачность в баллах и высота нижней границы облаков в метрах; квадратными скобками обозначены формы облаков: Ci - перистые, Cs - перисто-слоистые, Cc - перисто-кучевые, Ac - высококучевые, As - высокослоистые, Sc - слоисто-кучевые, Ns - слоисто-дождевые, Cu - кучевые, Cb - кучево-дождевые. Подробнее классификацию облаков см. в Атласе облаков (PDF).
T - Температура воздуха - температура, измеренная на высоте 2 м над землей.
Td - Температура точки росы - температура, при понижении до которой содержащийся в воздухе водяной пар достигнет насыщения.
f - Относительная влажность воздуха - влажноcть воздуха, измеренная на высоте 2 м над землей.
Te - Эффективная температура - температура, которую ощущает одетый по сезону человек в тени. Характеристика душности погоды. При расчете учитывается влияние влажности воздуха и скорости ветра на теплоощущения человека.
Tes - Эффективная температура на солнце - температура, которую ощущает человек, с поправкой на солнечный нагрев. Характеристика знойности погоды. Зависит от высоты солнца над горизонтом, облачности и скорости ветра. Ночью, в пасмурную погоду, а также при ветре 12 м/с и более поправка равна нулю.
P - Атмосферное давление - приведенное к уровню моря атмосферное давление.
Po - Атмосферное давление - измеренное на уровне метеостанции атмосферное давление.
Tmin - Минимальная температура - минимум температуры воздуха на высоте 2 м над землей.
Tmax - Максимальная температура - максимум температуры воздуха на высоте 2 м над землей.
R - Количество осадков - Количество выпавших осадков за период времени, мм. При наведении курсора мыши на число - период времени, за который выпало указанное количество осадков.
R24 - Количество осадков - Количество выпавших осадков за 24 часа, мм.
S - Снежный покров - Высота снежного покрова, см. При наведении курсора мыши на число - состояние снежного покрова и степень покрытия местности в баллах.